Location: Silverdale
(47.6506°N, 122.6941°W)
Time: 21:59:07
(UTC+00:00)

Tiros 1 despin weight - Pass Details

Date: 08 October 2022
Orbit: 590 x 637 km, 48.2° (Epoch: 05 December)

Event Time Altitude Azimuth Distance (km) Brightness Sun altitude
Rises 03:38:46 0° 285° (WNW) 2,877 ? -21.1°
Reaches altitude 10° 03:41:11 10° 278° (W) 1,978 ? -21.5°
Maximum altitude 03:45:23 38° 210° (SSW) 959 ? -22.1°
Enters shadow 03:46:25 33° 180° (S) 1,052 ? -22.3°
